When you browse on this site, cookies collect data to enhance your experience and personalize the content and advertising you see.
Visit our Privacy Policy to learn more. By continuing to use the site, you agree to this use of cookies and data.
  • In Hungary
  • List of Countries
  • For 7 days
  • Water Temperature
  • Weather Map
  • News
  • Weather Widgets
  • user-avatar
    Login

    Hourly Weather Brodziszow

    Today, 13 November, Wednesday

    Time Temperature Precipitation Wind Pressure Humidity
    00:00 +6°C° 1 mm 1 mps 721 mmHg 98%
    01:00 +6°C° 1 mm 1 mps 721 mmHg 98%
    02:00 +6°C° 0.2 mm 1 mps 721 mmHg 98%
    03:00 +6°C° 0.2 mm 1 mps 720 mmHg 98%
    04:00 +6°C° 0.2 mm 1 mps 720 mmHg 98%
    05:00 +6°C° 0 mm 1 mps 720 mmHg 98%
    06:00 +6°C° 0 mm 1 mps 720 mmHg 98%
    07:00 +6°C° 0 mm 1 mps 719 mmHg 98%
    08:00 +6°C° 0.2 mm 1 mps 719 mmHg 97%
    09:00 +7°C° 0.2 mm 1 mps 719 mmHg 97%
    10:00 +7°C° 0.2 mm 1 mps 719 mmHg 97%
    11:00 +6°C° 1.4 mm 2 mps 719 mmHg 97%
    12:00 +6°C° 1.4 mm 2 mps 719 mmHg 97%
    13:00 +6°C° 1.4 mm 2 mps 719 mmHg 97%
    14:00 +5°C° 0.6 mm 2 mps 719 mmHg 96%
    15:00 +5°C° 0.6 mm 2 mps 719 mmHg 96%
    16:00 +5°C° 0.6 mm 2 mps 719 mmHg 96%
    17:00 +5°C° 1.2 mm 2 mps 719 mmHg 96%
    18:00 +4°C° 1.2 mm 2 mps 719 mmHg 96%
    19:00 +4°C° 1.2 mm 2 mps 719 mmHg 97%
    20:00 +3°C° 2.2 mm 3 mps 719 mmHg 96%
    21:00 +3°C° 2.2 mm 3 mps 720 mmHg 96%
    22:00 +3°C° 2.2 mm 3 mps 720 mmHg 96%
    23:00 +3°C° 0.5 mm 3 mps 721 mmHg 95%

    Tomorrow, 14 November, Thursday

    Time Temperature Precipitation Wind Pressure Humidity
    00:00 +3°C° 0.5 mm 3 mps 721 mmHg 95%
    01:00 +2°C° 0.5 mm 3 mps 722 mmHg 94%
    02:00 +2°C° 0.2 mm 3 mps 722 mmHg 94%
    03:00 +2°C° 0.2 mm 3 mps 722 mmHg 93%
    04:00 +2°C° 0.2 mm 3 mps 723 mmHg 93%
    05:00 +2°C° 0 mm 2 mps 723 mmHg 92%
    06:00 +3°C° 0 mm 1 mps 724 mmHg 92%
    07:00 +3°C° 0 mm 1 mps 724 mmHg 91%
    08:00 +4°C° 0 mm 1 mps 724 mmHg 87%
    09:00 +4°C° 0 mm 1 mps 725 mmHg 82%
    10:00 +5°C° 0 mm 1 mps 725 mmHg 78%
    11:00 +6°C° 0 mm 1 mps 725 mmHg 76%
    12:00 +5°C° 0 mm 2 mps 725 mmHg 74%
    13:00 +6°C° 0 mm 2 mps 725 mmHg 72%
    14:00 +6°C° 0 mm 2 mps 725 mmHg 77%
    15:00 +5°C° 0 mm 2 mps 725 mmHg 82%
    16:00 +4°C° 0 mm 2 mps 725 mmHg 86%
    17:00 +5°C° 0 mm 1 mps 725 mmHg 87%
    18:00 +5°C° 0 mm 1 mps 725 mmHg 88%
    19:00 +5°C° 0 mm 1 mps 725 mmHg 88%
    20:00 +5°C° 0 mm 1 mps 725 mmHg 90%
    21:00 +5°C° 0 mm 1 mps 725 mmHg 92%
    22:00 +4°C° 0 mm 1 mps 724 mmHg 94%
    23:00 +3°C° 0 mm 2 mps 724 mmHg 94%

    Day after tomorrow, 15 November, Friday

    Time Temperature Precipitation Wind Pressure Humidity
    00:00 +4°C° 0 mm 2 mps 724 mmHg 94%
    01:00 +4°C° 0 mm 2 mps 724 mmHg 94%
    02:00 +4°C° 0 mm 2 mps 724 mmHg 93%
    03:00 +4°C° 0 mm 3 mps 723 mmHg 91%
    04:00 +4°C° 0 mm 3 mps 723 mmHg 90%
    05:00 +5°C° 0 mm 4 mps 723 mmHg 89%
    06:00 +5°C° 0 mm 4 mps 723 mmHg 88%
    07:00 +5°C° 0 mm 4 mps 723 mmHg 87%
    08:00 +8°C° 0 mm 5 mps 723 mmHg 83%
    09:00 +9°C° 0 mm 6 mps 723 mmHg 78%
    10:00 +11°C° 0 mm 6 mps 723 mmHg 74%
    11:00 +11°C° 0 mm 6 mps 723 mmHg 71%
    12:00 +13°C° 0 mm 5 mps 723 mmHg 69%
    13:00 +13°C° 0 mm 5 mps 723 mmHg 67%
    14:00 +13°C° 0 mm 5 mps 723 mmHg 70%
    15:00 +12°C° 0 mm 5 mps 723 mmHg 73%
    16:00 +10°C° 0 mm 5 mps 723 mmHg 76%
    17:00 +10°C° 0 mm 5 mps 723 mmHg 77%
    18:00 +10°C° 0 mm 5 mps 724 mmHg 79%
    19:00 +9°C° 0 mm 5 mps 724 mmHg 81%
    20:00 +9°C° 0 mm 5 mps 724 mmHg 82%
    21:00 +10°C° 0 mm 4 mps 724 mmHg 82%
    22:00 +10°C° 0 mm 4 mps 724 mmHg 83%
    23:00 +10°C° 0 mm 4 mps 724 mmHg 83%

    16 November, Saturday

    Time Temperature Precipitation Wind Pressure Humidity
    00:00 +10°C° 0 mm 4 mps 724 mmHg 82%
    01:00 +10°C° 0 mm 4 mps 724 mmHg 82%
    02:00 +9°C° 0 mm 5 mps 724 mmHg 82%
    03:00 +9°C° 0 mm 6 mps 724 mmHg 82%
    04:00 +9°C° 0 mm 6 mps 724 mmHg 82%
    05:00 +9°C° 0 mm 5 mps 724 mmHg 83%
    06:00 +8°C° 0 mm 5 mps 725 mmHg 84%
    07:00 +8°C° 0 mm 4 mps 725 mmHg 85%
    08:00 +10°C° 0 mm 3 mps 726 mmHg 84%
    09:00 +10°C° 0 mm 3 mps 727 mmHg 83%
    10:00 +10°C° 0 mm 2 mps 728 mmHg 81%
    11:00 +10°C° 0 mm 2 mps 728 mmHg 79%
    12:00 +12°C° 0 mm 2 mps 729 mmHg 76%
    13:00 +12°C° 0 mm 2 mps 729 mmHg 73%
    14:00 +10°C° 0 mm 2 mps 729 mmHg 76%
    15:00 +10°C° 0 mm 1 mps 729 mmHg 78%
    16:00 +10°C° 0 mm 1 mps 730 mmHg 80%
    17:00 +9°C° 0 mm 1 mps 730 mmHg 82%
    18:00 +9°C° 0 mm 1 mps 730 mmHg 84%
    19:00 +9°C° 0 mm 1 mps 730 mmHg 86%
    20:00 +9°C° 0 mm 1 mps 730 mmHg 87%
    21:00 +9°C° 0 mm 1 mps 730 mmHg 87%
    22:00 +9°C° 0 mm 1 mps 730 mmHg 87%
    23:00 +9°C° 0.1 mm 1 mps 730 mmHg 88%

    17 November, Sunday

    Time Temperature Precipitation Wind Pressure Humidity
    00:00 +9°C° 0.1 mm 1 mps 730 mmHg 89%
    01:00 +9°C° 0.1 mm 1 mps 729 mmHg 90%
    02:00 +9°C° 0 mm 1 mps 729 mmHg 91%
    03:00 +9°C° 0 mm 1 mps 728 mmHg 91%
    04:00 +9°C° 0 mm 1 mps 728 mmHg 92%
    05:00 +9°C° 0 mm 1 mps 727 mmHg 91%
    06:00 +9°C° 0 mm 1 mps 727 mmHg 90%
    07:00 +8°C° 0 mm 2 mps 727 mmHg 89%
    08:00 +9°C° 0 mm 2 mps 727 mmHg 85%
    09:00 +10°C° 0 mm 3 mps 727 mmHg 80%
    10:00 +11°C° 0 mm 3 mps 727 mmHg 76%
    11:00 +12°C° 0 mm 4 mps 726 mmHg 74%
    12:00 +12°C° 0 mm 4 mps 726 mmHg 72%
    13:00 +13°C° 0 mm 4 mps 726 mmHg 70%
    14:00 +12°C° 0 mm 4 mps 726 mmHg 75%
    15:00 +11°C° 0 mm 3 mps 726 mmHg 79%
    16:00 +10°C° 0 mm 2 mps 726 mmHg 83%
    17:00 +9°C° 0 mm 2 mps 726 mmHg 85%
    18:00 +9°C° 0 mm 2 mps 726 mmHg 86%
    19:00 +9°C° 0 mm 2 mps 726 mmHg 88%
    20:00 +8°C° 0 mm 2 mps 726 mmHg 87%
    21:00 +8°C° 0 mm 2 mps 726 mmHg 87%
    22:00 +8°C° 0 mm 2 mps 726 mmHg 87%
    23:00 +8°C° 0 mm 3 mps 725 mmHg 86%

    18 November, Monday

    Time Temperature Precipitation Wind Pressure Humidity
    00:00 +8°C° 0 mm 3 mps 725 mmHg 86%
    01:00 +8°C° 0 mm 3 mps 725 mmHg 85%
    02:00 +7°C° 0 mm 4 mps 724 mmHg 84%
    03:00 +7°C° 0 mm 4 mps 724 mmHg 82%
    04:00 +7°C° 0 mm 4 mps 724 mmHg 81%
    05:00 +7°C° 0 mm 4 mps 724 mmHg 81%
    06:00 +8°C° 0 mm 3 mps 725 mmHg 82%
    07:00 +8°C° 0 mm 3 mps 725 mmHg 82%
    08:00 +8°C° 0 mm 4 mps 725 mmHg 80%
    09:00 +8°C° 0 mm 4 mps 725 mmHg 78%
    10:00 +9°C° 0 mm 5 mps 725 mmHg 75%
    11:00 +9°C° 0 mm 5 mps 725 mmHg 74%
    12:00 +11°C° 0 mm 4 mps 725 mmHg 73%
    13:00 +11°C° 0 mm 4 mps 725 mmHg 72%
    14:00 +11°C° 0 mm 4 mps 726 mmHg 74%
    15:00 +10°C° 0 mm 3 mps 726 mmHg 76%
    16:00 +10°C° 0 mm 3 mps 726 mmHg 78%
    17:00 +10°C° 0 mm 3 mps 726 mmHg 78%
    18:00 +10°C° 0 mm 3 mps 727 mmHg 79%
    19:00 +10°C° 0 mm 3 mps 727 mmHg 80%
    20:00 +9°C° 0 mm 3 mps 728 mmHg 81%
    21:00 +8°C° 0 mm 4 mps 728 mmHg 82%
    22:00 +7°C° 0 mm 4 mps 728 mmHg 84%
    23:00 +8°C° 0 mm 3 mps 729 mmHg 85%
    Show more